Time,TemperatureF,DewpointF,PressureIn,WindDirection,WindDirectionDegrees,WindSpeedMPH,WindSpeedGustMPH,Humidity,HourlyPrecipIn,Conditions,Clouds,dailyrainin,SoftwareType,DateUTC
2013-08-13 00:01:00,64.0,64.0,29.90,ESE,108,0.0,1.0,100,0.00,,---,0.00,VWS V14.01,2013-08-13 04:01:00,
2013-08-13 00:06:00,64.0,64.0,29.90,ESE,108,0.0,1.0,100,0.00,,---,0.00,VWS V14.01,2013-08-13 04:06:00,
2013-08-13 00:11:00,64.1,64.1,29.90,ESE,108,0.0,1.0,100,0.00,,---,0.00,VWS V14.01,2013-08-13 04:11:00,
2013-08-13 00:16:00,64.2,64.2,29.90,SE,131,1.0,1.0,100,0.00,,---,0.00,VWS V14.01,2013-08-13 04:16:00,
2013-08-13 00:21:00,64.4,64.4,29.90,SE,131,1.0,3.0,100,0.00,,---,0.00,VWS V14.01,2013-08-13 04:21:00,
2013-08-13 00:26:00,64.5,64.5,29.90,ESE,115,0.0,3.0,100,0.00,,---,0.00,VWS V14.01,2013-08-13 04:26:00,
2013-08-13 00:31:00,64.5,64.5,29.90,ESE,116,0.0,1.0,100,0.00,,---,0.00,VWS V14.01,2013-08-13 04:31:00,
2013-08-13 00:36:00,64.6,64.6,29.90,ESE,117,1.0,5.0,100,0.00,,---,0.00,VWS V14.01,2013-08-13 04:36:00,
2013-08-13 00:41:00,64.9,64.9,29.90,South,180,3.0,5.0,100,0.00,,---,0.00,VWS V14.01,2013-08-13 04:41:00,
2013-08-13 00:46:00,65.2,65.2,29.89,SSE,160,0.0,5.0,100,0.00,,---,0.00,VWS V14.01,2013-08-13 04:46:00,
2013-08-13 00:51:00,65.4,65.4,29.89,ESE,121,2.0,5.0,100,0.00,,---,0.00,VWS V14.01,2013-08-13 04:51:00,
2013-08-13 00:56:00,65.6,65.6,29.88,South,180,0.0,5.0,100,0.00,,---,0.00,VWS V14.01,2013-08-13 04:56:00,
2013-08-13 01:01:00,65.8,65.8,29.88,SSE,155,0.0,1.0,100,0.00,,---,0.00,VWS V14.01,2013-08-13 05:01:00,
2013-08-13 01:06:00,65.9,65.6,29.88,ESE,112,0.0,3.0,99,0.00,,---,0.00,VWS V14.01,2013-08-13 05:06:00,
2013-08-13 01:11:00,66.2,65.9,29.88,SW,224,4.0,5.0,99,0.00,,---,0.00,VWS V14.01,2013-08-13 05:11:00,
2013-08-13 01:16:00,66.5,66.2,29.88,SSW,203,4.0,5.0,99,0.00,,---,0.00,VWS V14.01,2013-08-13 05:16:00,
2013-08-13 01:21:00,66.8,66.2,29.87,SE,132,3.0,12.0,98,0.05,,---,0.05,VWS V14.01,2013-08-13 05:21:00,
2013-08-13 01:26:00,67.0,66.1,29.87,SW,217,2.0,12.0,97,0.05,,---,0.05,VWS V14.01,2013-08-13 05:26:00,
2013-08-13 01:31:00,67.0,66.1,29.87,South,179,2.0,10.0,97,0.05,,---,0.05,VWS V14.01,2013-08-13 05:31:00,
2013-08-13 01:36:00,67.0,65.8,29.87,SW,215,2.0,10.0,96,0.05,,---,0.05,VWS V14.01,2013-08-13 05:36:00,
2013-08-13 01:41:00,66.9,65.7,29.87,WSW,257,7.0,10.0,96,0.05,,---,0.05,VWS V14.01,2013-08-13 05:41:00,
2013-08-13 01:46:00,66.9,65.7,29.87,South,190,1.0,10.0,96,0.05,,---,0.05,VWS V14.01,2013-08-13 05:46:00,
2013-08-13 01:51:00,66.9,65.7,29.86,SW,225,0.0,10.0,96,0.05,,---,0.05,VWS V14.01,2013-08-13 05:51:00,
2013-08-13 01:56:00,66.9,66.0,29.86,SSW,211,4.0,10.0,97,0.06,,---,0.06,VWS V14.01,2013-08-13 05:56:00,
2013-08-13 02:02:00,67.0,66.1,29.86,West,276,4.0,8.0,97,0.06,,---,0.06,VWS V14.01,2013-08-13 06:02:00,
2013-08-13 02:07:00,66.9,66.0,29.86,SSE,151,3.0,9.0,97,0.07,,---,0.07,VWS V14.01,2013-08-13 06:07:00,
2013-08-13 02:12:00,66.9,66.0,29.85,SSW,210,5.0,10.0,97,0.07,,---,0.07,VWS V14.01,2013-08-13 06:12:00,
2013-08-13 02:17:00,66.9,66.0,29.85,SW,228,3.0,12.0,97,0.08,,---,0.08,VWS V14.01,2013-08-13 06:17:00,
2013-08-13 02:22:00,66.8,65.9,29.85,South,173,0.0,12.0,97,0.08,,---,0.08,VWS V14.01,2013-08-13 06:22:00,
2013-08-13 02:27:00,66.8,65.9,29.85,WSW,238,3.0,12.0,97,0.08,,---,0.08,VWS V14.01,2013-08-13 06:27:00,
2013-08-13 02:32:00,66.8,66.2,29.85,SW,235,4.0,5.0,98,0.04,,---,0.09,VWS V14.01,2013-08-13 06:32:00,
2013-08-13 02:37:00,66.7,66.1,29.85,SW,215,4.0,9.0,98,0.04,,---,0.09,VWS V14.01,2013-08-13 06:37:00,
2013-08-13 02:42:00,66.6,66.0,29.84,SW,218,7.0,11.0,98,0.04,,---,0.09,VWS V14.01,2013-08-13 06:42:00,
2013-08-13 02:47:00,66.6,66.0,29.83,SE,141,2.0,17.0,98,0.04,,---,0.09,VWS V14.01,2013-08-13 06:47:00,
2013-08-13 02:52:00,66.6,66.0,29.83,SSW,202,4.0,17.0,98,0.04,,---,0.09,VWS V14.01,2013-08-13 06:52:00,
2013-08-13 02:57:00,66.6,66.0,29.83,South,180,4.0,17.0,98,0.04,,---,0.09,VWS V14.01,2013-08-13 06:57:00,
2013-08-13 03:02:00,66.5,65.9,29.82,SW,226,8.0,8.0,98,0.03,,---,0.09,VWS V14.01,2013-08-13 07:02:00,
2013-08-13 03:07:00,66.5,65.9,29.82,ENE,73,4.0,12.0,98,0.03,,---,0.09,VWS V14.01,2013-08-13 07:07:00,
2013-08-13 03:12:00,66.4,65.8,29.82,ESE,104,3.0,12.0,98,0.04,,---,0.10,VWS V14.01,2013-08-13 07:12:00,
2013-08-13 03:17:00,66.3,65.7,29.82,SSW,203,6.0,12.0,98,0.04,,---,0.10,VWS V14.01,2013-08-13 07:17:00,
2013-08-13 03:22:00,66.3,65.7,29.82,SSW,205,2.0,12.0,98,0.04,,---,0.10,VWS V14.01,2013-08-13 07:22:00,
2013-08-13 03:27:00,66.2,65.3,29.82,SSW,195,3.0,12.0,97,0.04,,---,0.10,VWS V14.01,2013-08-13 07:27:00,
2013-08-13 03:32:00,66.0,65.1,29.82,SW,235,4.0,13.0,97,0.01,,---,0.10,VWS V14.01,2013-08-13 07:32:00,
2013-08-13 03:37:00,65.9,64.7,29.82,SSW,198,6.0,13.0,96,0.01,,---,0.10,VWS V14.01,2013-08-13 07:37:00,
2013-08-13 03:42:00,65.9,64.7,29.82,SW,228,6.0,13.0,96,0.01,,---,0.10,VWS V14.01,2013-08-13 07:42:00,
2013-08-13 03:47:00,65.8,64.3,29.82,SSW,195,6.0,13.0,95,0.01,,---,0.10,VWS V14.01,2013-08-13 07:47:00,
2013-08-13 03:52:00,65.8,64.0,29.82,WSW,241,1.0,13.0,94,0.01,,---,0.10,VWS V14.01,2013-08-13 07:52:00,
2013-08-13 03:57:00,65.8,64.0,29.82,SSW,210,9.0,13.0,94,0.01,,---,0.10,VWS V14.01,2013-08-13 07:57:00,
2013-08-13 04:02:00,65.9,63.8,29.82,SSW,194,2.0,13.0,93,0.01,,---,0.10,VWS V14.01,2013-08-13 08:02:00,
2013-08-13 04:07:00,65.9,63.8,29.82,SW,233,3.0,13.0,93,0.01,,---,0.10,VWS V14.01,2013-08-13 08:07:00,
2013-08-13 04:12:00,65.9,64.1,29.82,SW,236,5.0,13.0,94,0.01,,---,0.10,VWS V14.01,2013-08-13 08:12:00,
2013-08-13 04:17:00,65.9,64.1,29.83,WSW,248,6.0,13.0,94,0.01,,---,0.10,VWS V14.01,2013-08-13 08:17:00,
2013-08-13 04:22:00,65.8,64.0,29.83,SSW,200,5.0,13.0,94,0.01,,---,0.10,VWS V14.01,2013-08-13 08:22:00,
2013-08-13 04:27:00,65.8,64.3,29.83,SW,218,4.0,13.0,95,0.01,,---,0.10,VWS V14.01,2013-08-13 08:27:00,
2013-08-13 04:32:00,65.8,64.3,29.83,SSW,196,4.0,9.0,95,0.00,,---,0.10,VWS V14.01,2013-08-13 08:32:00,
2013-08-13 04:37:00,65.8,64.3,29.82,South,188,2.0,9.0,95,0.00,,---,0.10,VWS V14.01,2013-08-13 08:37:00,
2013-08-13 04:42:00,65.7,64.2,29.82,WSW,250,1.0,9.0,95,0.00,,---,0.10,VWS V14.01,2013-08-13 08:42:00,
2013-08-13 04:47:00,65.6,64.4,29.82,West,262,0.0,9.0,96,0.00,,---,0.10,VWS V14.01,2013-08-13 08:47:00,
2013-08-13 04:52:00,65.6,64.4,29.82,SW,228,2.0,9.0,96,0.00,,---,0.10,VWS V14.01,2013-08-13 08:52:00,
2013-08-13 04:57:00,65.5,64.3,29.82,WSW,250,0.0,9.0,96,0.00,,---,0.10,VWS V14.01,2013-08-13 08:57:00,
2013-08-13 05:02:00,65.5,64.6,29.81,SW,222,3.0,4.0,97,0.00,,---,0.10,VWS V14.01,2013-08-13 09:02:00,
2013-08-13 05:07:00,65.5,64.6,29.81,WSW,248,1.0,7.0,97,0.00,,---,0.10,VWS V14.01,2013-08-13 09:07:00,
2013-08-13 05:12:00,65.5,64.6,29.81,WSW,245,1.0,7.0,97,0.00,,---,0.10,VWS V14.01,2013-08-13 09:12:00,
2013-08-13 05:17:00,65.5,64.6,29.82,SW,231,2.0,7.0,97,0.00,,---,0.10,VWS V14.01,2013-08-13 09:17:00,
2013-08-13 05:22:00,65.5,64.9,29.82,South,191,2.0,7.0,98,0.00,,---,0.10,VWS V14.01,2013-08-13 09:22:00,
2013-08-13 05:27:00,65.4,64.8,29.81,SSW,204,0.0,7.0,98,0.00,,---,0.10,VWS V14.01,2013-08-13 09:27:00,
2013-08-13 05:32:00,65.4,64.8,29.81,West,281,0.0,5.0,98,0.00,,---,0.10,VWS V14.01,2013-08-13 09:32:00,
2013-08-13 05:37:00,65.5,64.9,29.81,SSW,195,1.0,7.0,98,0.00,,---,0.10,VWS V14.01,2013-08-13 09:37:00,
2013-08-13 05:42:00,65.6,65.3,29.81,SW,232,0.0,8.0,99,0.00,,---,0.10,VWS V14.01,2013-08-13 09:42:00,
2013-08-13 05:47:00,65.7,65.4,29.80,South,189,4.0,8.0,99,0.00,,---,0.10,VWS V14.01,2013-08-13 09:47:00,
2013-08-13 05:52:00,65.8,65.5,29.81,WSW,257,3.0,8.0,99,0.00,,---,0.10,VWS V14.01,2013-08-13 09:52:00,
2013-08-13 05:57:00,65.8,65.2,29.81,West,259,3.0,8.0,98,0.00,,---,0.10,VWS V14.01,2013-08-13 09:57:00,
2013-08-13 06:02:00,65.8,65.2,29.81,West,272,3.0,5.0,98,0.01,,---,0.11,VWS V14.01,2013-08-13 10:02:00,
2013-08-13 06:07:00,65.6,65.0,29.81,SW,232,0.0,5.0,98,0.02,,---,0.12,VWS V14.01,2013-08-13 10:07:00,
2013-08-13 06:12:00,65.4,64.8,29.81,SW,224,2.0,5.0,98,0.05,,---,0.15,VWS V14.01,2013-08-13 10:12:00,
2013-08-13 06:17:00,65.3,65.0,29.81,West,281,1.0,5.0,99,0.09,,---,0.19,VWS V14.01,2013-08-13 10:17:00,
2013-08-13 06:22:00,65.2,64.9,29.82,WSW,250,3.0,5.0,99,0.16,,---,0.26,VWS V14.01,2013-08-13 10:22:00,
2013-08-13 06:27:00,65.1,64.8,29.82,SW,219,1.0,5.0,99,0.28,,---,0.38,VWS V14.01,2013-08-13 10:27:00,
2013-08-13 06:32:00,65.0,64.7,29.82,SSW,193,0.0,4.0,99,0.30,,---,0.40,VWS V14.01,2013-08-13 10:32:00,
2013-08-13 06:37:00,64.9,64.6,29.82,SSW,210,3.0,4.0,99,0.31,,---,0.41,VWS V14.01,2013-08-13 10:37:00,
2013-08-13 06:42:00,64.9,64.6,29.82,SSW,204,4.0,8.0,99,0.31,,---,0.41,VWS V14.01,2013-08-13 10:42:00,
2013-08-13 06:47:00,64.9,64.6,29.82,South,183,4.0,8.0,99,0.31,,---,0.41,VWS V14.01,2013-08-13 10:47:00,
2013-08-13 06:52:00,64.8,64.5,29.82,SSW,193,7.0,9.0,99,0.31,,---,0.41,VWS V14.01,2013-08-13 10:52:00,
2013-08-13 06:57:00,64.8,64.5,29.82,WSW,239,2.0,9.0,99,0.32,,---,0.42,VWS V14.01,2013-08-13 10:57:00,
2013-08-13 07:02:00,64.8,64.8,29.82,SSW,203,2.0,5.0,100,0.33,,---,0.43,VWS V14.01,2013-08-13 11:02:00,
2013-08-13 07:07:00,64.8,64.8,29.82,West,267,1.0,5.0,100,0.35,,---,0.45,VWS V14.01,2013-08-13 11:07:00,
2013-08-13 07:12:00,64.8,64.8,29.82,NW,314,4.0,6.0,100,0.35,,---,0.45,VWS V14.01,2013-08-13 11:12:00,
2013-08-13 07:17:00,64.8,64.8,29.81,ESE,104,0.0,6.0,100,0.35,,---,0.45,VWS V14.01,2013-08-13 11:17:00,
2013-08-13 07:22:00,64.9,64.9,29.82,West,281,2.0,8.0,100,0.35,,---,0.45,VWS V14.01,2013-08-13 11:22:00,
2013-08-13 07:28:00,64.9,64.9,29.82,SE,124,1.0,8.0,100,0.35,,---,0.45,VWS V14.01,2013-08-13 11:28:00,
2013-08-13 07:33:00,64.9,64.9,29.82,WSW,246,4.0,7.0,100,0.06,,---,0.45,VWS V14.01,2013-08-13 11:33:00,
2013-08-13 07:38:00,64.8,64.8,29.82,WSW,248,1.0,7.0,100,0.06,,---,0.45,VWS V14.01,2013-08-13 11:38:00,
2013-08-13 07:43:00,64.8,64.8,29.82,WSW,255,4.0,7.0,100,0.06,,---,0.45,VWS V14.01,2013-08-13 11:43:00,
2013-08-13 07:48:00,64.8,64.8,29.82,WSW,253,4.0,8.0,100,0.07,,---,0.46,VWS V14.01,2013-08-13 11:48:00,
2013-08-13 07:53:00,64.7,64.7,29.83,SW,218,5.0,9.0,100,0.07,,---,0.46,VWS V14.01,2013-08-13 11:53:00,
2013-08-13 07:58:00,64.7,64.7,29.83,SSW,210,1.0,9.0,100,0.08,,---,0.47,VWS V14.01,2013-08-13 11:58:00,
2013-08-13 08:03:00,64.8,64.8,29.83,WNW,297,4.0,6.0,100,0.05,,---,0.47,VWS V14.01,2013-08-13 12:03:00,
2013-08-13 08:08:00,64.8,64.8,29.83,WSW,249,4.0,6.0,100,0.06,,---,0.48,VWS V14.01,2013-08-13 12:08:00,
2013-08-13 08:13:00,64.7,64.7,29.83,West,280,0.0,8.0,100,0.06,,---,0.48,VWS V14.01,2013-08-13 12:13:00,
2013-08-13 08:18:00,64.7,64.7,29.83,WSW,243,0.0,8.0,100,0.07,,---,0.49,VWS V14.01,2013-08-13 12:18:00,
2013-08-13 08:23:00,64.7,64.7,29.83,SW,236,2.0,8.0,100,0.08,,---,0.50,VWS V14.01,2013-08-13 12:23:00,
2013-08-13 08:28:00,64.7,64.7,29.83,West,269,3.0,8.0,100,0.08,,---,0.50,VWS V14.01,2013-08-13 12:28:00,
2013-08-13 08:33:00,64.7,64.7,29.83,SW,235,2.0,4.0,100,0.05,,---,0.50,VWS V14.01,2013-08-13 12:33:00,
2013-08-13 08:38:00,64.8,64.8,29.83,South,191,2.0,4.0,100,0.05,,---,0.50,VWS V14.01,2013-08-13 12:38:00,
2013-08-13 08:43:00,64.8,64.8,29.83,WSW,243,2.0,4.0,100,0.05,,---,0.50,VWS V14.01,2013-08-13 12:43:00,
2013-08-13 08:48:00,65.0,65.0,29.83,SSE,158,2.0,4.0,100,0.06,,---,0.51,VWS V14.01,2013-08-13 12:48:00,
2013-08-13 08:53:00,65.1,65.1,29.83,WSW,257,4.0,4.0,100,0.06,,---,0.51,VWS V14.01,2013-08-13 12:53:00,
2013-08-13 08:58:00,65.2,65.2,29.83,West,278,1.0,4.0,100,0.06,,---,0.51,VWS V14.01,2013-08-13 12:58:00,
2013-08-13 09:03:00,65.3,65.3,29.83,South,174,0.0,1.0,100,0.04,,---,0.51,VWS V14.01,2013-08-13 13:03:00,
2013-08-13 09:08:00,65.3,65.3,29.83,West,278,1.0,4.0,100,0.04,,---,0.51,VWS V14.01,2013-08-13 13:08:00,
2013-08-13 09:13:00,65.3,65.3,29.83,SSW,193,1.0,4.0,100,0.04,,---,0.51,VWS V14.01,2013-08-13 13:13:00,
2013-08-13 09:18:00,65.3,65.3,29.83,SW,232,0.0,4.0,100,0.04,,---,0.51,VWS V14.01,2013-08-13 13:18:00,
2013-08-13 09:23:00,65.4,65.4,29.83,WSW,255,5.0,5.0,100,0.04,,---,0.51,VWS V14.01,2013-08-13 13:23:00,
2013-08-13 09:28:00,65.5,65.5,29.83,WNW,294,2.0,5.0,100,0.04,,---,0.51,VWS V14.01,2013-08-13 13:28:00,
2013-08-13 09:33:00,65.5,65.5,29.83,West,260,1.0,4.0,100,0.01,,---,0.51,VWS V14.01,2013-08-13 13:33:00,
2013-08-13 09:38:00,65.6,65.6,29.83,West,281,2.0,4.0,100,0.01,,---,0.51,VWS V14.01,2013-08-13 13:38:00,
2013-08-13 09:43:00,65.6,65.6,29.83,SSW,198,1.0,4.0,100,0.01,,---,0.51,VWS V14.01,2013-08-13 13:43:00,
2013-08-13 09:48:00,65.5,65.2,29.83,WSW,255,0.0,5.0,99,0.01,,---,0.51,VWS V14.01,2013-08-13 13:48:00,
2013-08-13 09:53:00,65.6,65.6,29.83,WSW,239,1.0,5.0,100,0.01,,---,0.51,VWS V14.01,2013-08-13 13:53:00,
2013-08-13 09:58:00,65.6,65.3,29.83,WNW,290,3.0,5.0,99,0.03,,---,0.53,VWS V14.01,2013-08-13 13:58:00,
2013-08-13 10:03:00,65.7,65.7,29.83,West,274,1.0,3.0,100,0.05,,---,0.56,VWS V14.01,2013-08-13 14:03:00,
2013-08-13 10:08:00,65.7,65.7,29.83,SSW,197,3.0,4.0,100,0.06,,---,0.57,VWS V14.01,2013-08-13 14:08:00,
2013-08-13 10:13:00,65.6,65.6,29.83,SSW,194,4.0,4.0,100,0.06,,---,0.57,VWS V14.01,2013-08-13 14:13:00,
2013-08-13 10:18:00,65.6,65.3,29.83,SSW,204,1.0,7.0,99,0.06,,---,0.57,VWS V14.01,2013-08-13 14:18:00,
2013-08-13 10:23:00,65.6,65.6,29.83,West,274,3.0,7.0,100,0.07,,---,0.58,VWS V14.01,2013-08-13 14:23:00,
2013-08-13 10:28:00,65.8,65.8,29.83,SW,219,2.0,7.0,100,0.07,,---,0.58,VWS V14.01,2013-08-13 14:28:00,
2013-08-13 10:33:00,66.0,66.0,29.83,SW,235,0.0,1.0,100,0.07,,---,0.58,VWS V14.01,2013-08-13 14:33:00,
2013-08-13 10:38:00,66.1,66.1,29.83,SW,214,1.0,3.0,100,0.08,,---,0.59,VWS V14.01,2013-08-13 14:38:00,
2013-08-13 10:43:00,66.1,65.8,29.83,SSE,155,1.0,4.0,99,0.08,,---,0.59,VWS V14.01,2013-08-13 14:43:00,
2013-08-13 10:48:00,66.1,65.8,29.83,West,278,0.0,4.0,99,0.08,,---,0.59,VWS V14.01,2013-08-13 14:48:00,
2013-08-13 10:53:00,66.2,66.2,29.83,SW,217,0.0,4.0,100,0.08,,---,0.59,VWS V14.01,2013-08-13 14:53:00,
2013-08-13 10:58:00,66.3,66.3,29.83,WNW,300,0.0,4.0,100,0.08,,---,0.59,VWS V14.01,2013-08-13 14:58:00,
2013-08-13 11:03:00,66.6,66.6,29.82,SW,226,2.0,4.0,100,0.05,,---,0.59,VWS V14.01,2013-08-13 15:03:00,
2013-08-13 11:08:00,66.9,66.9,29.83,SSW,210,2.0,4.0,100,0.05,,---,0.59,VWS V14.01,2013-08-13 15:08:00,
2013-08-13 11:13:00,67.2,66.9,29.83,SSW,204,1.0,4.0,99,0.05,,---,0.59,VWS V14.01,2013-08-13 15:13:00,
2013-08-13 11:18:00,67.3,67.0,29.82,West,259,0.0,4.0,99,0.05,,---,0.59,VWS V14.01,2013-08-13 15:18:00,
2013-08-13 11:23:00,67.2,66.9,29.83,SW,233,1.0,4.0,99,0.05,,---,0.59,VWS V14.01,2013-08-13 15:23:00,
2013-08-13 11:28:00,67.1,66.8,29.84,WNW,289,2.0,4.0,99,0.14,,---,0.68,VWS V14.01,2013-08-13 15:28:00,
2013-08-13 11:33:00,66.7,66.1,29.84,WNW,296,1.0,3.0,98,0.19,,---,0.77,VWS V14.01,2013-08-13 15:33:00,
2013-08-13 11:38:00,66.4,65.8,29.84,WNW,300,1.0,4.0,98,0.20,,---,0.78,VWS V14.01,2013-08-13 15:38:00,
2013-08-13 11:43:00,66.2,65.9,29.84,North,356,0.0,4.0,99,0.22,,---,0.80,VWS V14.01,2013-08-13 15:43:00,
2013-08-13 11:48:00,66.0,65.7,29.84,SW,214,0.0,4.0,99,0.22,,---,0.80,VWS V14.01,2013-08-13 15:48:00,
2013-08-13 11:53:00,66.0,65.7,29.84,SW,231,0.0,4.0,99,0.23,,---,0.81,VWS V14.01,2013-08-13 15:53:00,
2013-08-13 11:58:00,66.1,65.8,29.84,SW,221,0.0,4.0,99,0.23,,---,0.81,VWS V14.01,2013-08-13 15:58:00,
2013-08-13 12:03:00,66.2,65.9,29.84,SW,233,1.0,2.0,99,0.23,,---,0.82,VWS V14.01,2013-08-13 16:03:00,
2013-08-13 12:08:00,66.1,65.8,29.84,West,261,1.0,4.0,99,0.24,,---,0.83,VWS V14.01,2013-08-13 16:08:00,
2013-08-13 12:13:00,66.0,65.7,29.84,West,281,1.0,4.0,99,0.24,,---,0.83,VWS V14.01,2013-08-13 16:13:00,
2013-08-13 12:18:00,66.1,65.8,29.84,SSW,201,1.0,6.0,99,0.24,,---,0.83,VWS V14.01,2013-08-13 16:18:00,
2013-08-13 12:23:00,66.1,65.8,29.84,SW,218,0.0,6.0,99,0.25,,---,0.84,VWS V14.01,2013-08-13 16:23:00,
2013-08-13 12:28:00,66.1,65.8,29.84,South,191,1.0,6.0,99,0.25,,---,0.84,VWS V14.01,2013-08-13 16:28:00,
2013-08-13 12:33:00,66.7,66.7,29.84,West,274,2.0,3.0,100,0.12,,---,0.84,VWS V14.01,2013-08-13 16:33:00,
2013-08-13 12:38:00,66.8,66.5,29.84,WSW,248,6.0,6.0,99,0.12,,---,0.84,VWS V14.01,2013-08-13 16:38:00,
2013-08-13 12:43:00,67.1,66.8,29.84,WNW,294,2.0,7.0,99,0.12,,---,0.84,VWS V14.01,2013-08-13 16:43:00,
2013-08-13 12:48:00,67.4,67.1,29.84,SW,223,1.0,7.0,99,0.12,,---,0.84,VWS V14.01,2013-08-13 16:48:00,
2013-08-13 12:53:00,67.7,66.8,29.84,SW,225,2.0,7.0,97,0.12,,---,0.84,VWS V14.01,2013-08-13 16:53:00,
2013-08-13 12:58:00,68.1,67.2,29.83,WSW,250,3.0,7.0,97,0.12,,---,0.84,VWS V14.01,2013-08-13 16:58:00,
2013-08-13 13:03:00,68.3,67.1,29.83,SW,221,0.0,6.0,96,0.03,,---,0.84,VWS V14.01,2013-08-13 17:03:00,
2013-08-13 13:08:00,68.4,66.9,29.84,SW,219,3.0,7.0,95,0.03,,---,0.84,VWS V14.01,2013-08-13 17:08:00,
2013-08-13 13:14:00,68.7,67.2,29.83,SW,222,2.0,7.0,95,0.03,,---,0.84,VWS V14.01,2013-08-13 17:14:00,
2013-08-13 13:19:00,69.1,67.6,29.83,WSW,253,0.0,7.0,95,0.03,,---,0.84,VWS V14.01,2013-08-13 17:19:00,
2013-08-13 13:24:00,69.3,66.9,29.83,SSW,195,3.0,7.0,92,0.03,,---,0.84,VWS V14.01,2013-08-13 17:24:00,
2013-08-13 13:29:00,69.2,66.8,29.83,WNW,283,3.0,9.0,92,0.03,,---,0.84,VWS V14.01,2013-08-13 17:29:00,
2013-08-13 13:34:00,69.1,66.7,29.83,West,271,4.0,6.0,92,0.00,,---,0.84,VWS V14.01,2013-08-13 17:34:00,
2013-08-13 13:39:00,68.8,66.1,29.83,WNW,288,3.0,6.0,91,0.00,,---,0.84,VWS V14.01,2013-08-13 17:39:00,
2013-08-13 13:44:00,68.5,66.1,29.83,South,191,0.0,6.0,92,0.01,,---,0.85,VWS V14.01,2013-08-13 17:44:00,
2013-08-13 13:49:00,67.8,65.7,29.84,WNW,290,2.0,6.0,93,0.04,,---,0.88,VWS V14.01,2013-08-13 17:49:00,
2013-08-13 13:54:00,66.4,63.7,29.84,NNE,23,2.0,9.0,91,0.10,,---,0.94,VWS V14.01,2013-08-13 17:54:00,
2013-08-13 13:59:00,65.2,62.8,29.84,WNW,283,6.0,9.0,92,0.11,,---,0.95,VWS V14.01,2013-08-13 17:59:00,
2013-08-13 14:04:00,64.6,63.1,29.84,WNW,287,0.0,5.0,95,0.13,,---,0.97,VWS V14.01,2013-08-13 18:04:00,
2013-08-13 14:09:00,64.5,63.3,29.84,WSW,240,2.0,5.0,96,0.14,,---,0.98,VWS V14.01,2013-08-13 18:09:00,
2013-08-13 14:14:00,64.7,63.8,29.84,SSE,165,1.0,5.0,97,0.14,,---,0.98,VWS V14.01,2013-08-13 18:14:00,
2013-08-13 14:19:00,65.6,65.0,29.84,WNW,289,1.0,5.0,98,0.14,,---,0.98,VWS V14.01,2013-08-13 18:19:00,
2013-08-13 14:24:00,65.8,64.6,29.84,WNW,290,3.0,5.0,96,0.14,,---,0.98,VWS V14.01,2013-08-13 18:24:00,
2013-08-13 14:29:00,66.0,64.5,29.83,WNW,301,0.0,5.0,95,0.14,,---,0.98,VWS V14.01,2013-08-13 18:29:00,
2013-08-13 14:34:00,66.5,65.0,29.83,WSW,251,6.0,6.0,95,0.14,,---,0.98,VWS V14.01,2013-08-13 18:34:00,
2013-08-13 14:39:00,67.2,65.7,29.83,WNW,283,6.0,6.0,95,0.14,,---,0.98,VWS V14.01,2013-08-13 18:39:00,
2013-08-13 14:44:00,68.0,66.5,29.83,SW,226,3.0,7.0,95,0.14,,---,0.98,VWS V14.01,2013-08-13 18:44:00,
2013-08-13 14:49:00,68.3,66.2,29.83,West,262,3.0,9.0,93,0.14,,---,0.98,VWS V14.01,2013-08-13 18:49:00,
2013-08-13 14:54:00,68.8,66.4,29.83,WNW,288,3.0,9.0,92,0.14,,---,0.98,VWS V14.01,2013-08-13 18:54:00,
2013-08-13 14:59:00,69.1,66.4,29.82,NNE,12,0.0,9.0,91,0.14,,---,0.98,VWS V14.01,2013-08-13 18:59:00,
2013-08-13 15:04:00,69.4,66.3,29.82,WSW,241,2.0,8.0,90,0.03,,---,0.98,VWS V14.01,2013-08-13 19:04:00,
2013-08-13 15:09:00,69.8,66.7,29.82,SSW,200,4.0,8.0,90,0.03,,---,0.98,VWS V14.01,2013-08-13 19:09:00,
2013-08-13 15:14:00,70.1,66.4,29.82,South,187,4.0,8.0,88,0.03,,---,0.98,VWS V14.01,2013-08-13 19:14:00,
2013-08-13 15:19:00,70.6,67.2,29.82,West,266,1.0,8.0,89,0.03,,---,0.98,VWS V14.01,2013-08-13 19:19:00,
2013-08-13 15:24:00,71.1,66.4,29.81,ESE,120,2.0,8.0,85,0.03,,---,0.98,VWS V14.01,2013-08-13 19:24:00,
2013-08-13 15:29:00,70.8,65.7,29.81,WSW,243,8.0,10.0,84,0.03,,---,0.98,VWS V14.01,2013-08-13 19:29:00,
2013-08-13 15:34:00,70.5,65.4,29.81,SSW,208,7.0,10.0,84,0.00,,---,0.98,VWS V14.01,2013-08-13 19:34:00,
2013-08-13 15:39:00,70.9,66.2,29.81,NW,316,1.0,10.0,85,0.00,,---,0.98,VWS V14.01,2013-08-13 19:39:00,
2013-08-13 15:44:00,70.7,66.3,29.81,West,263,3.0,10.0,86,0.00,,---,0.98,VWS V14.01,2013-08-13 19:44:00,
2013-08-13 15:49:00,70.9,66.5,29.81,West,269,2.0,10.0,86,0.00,,---,0.98,VWS V14.01,2013-08-13 19:49:00,
2013-08-13 15:54:00,70.8,66.1,29.81,SW,226,6.0,12.0,85,0.00,,---,0.98,VWS V14.01,2013-08-13 19:54:00,
2013-08-13 15:59:00,70.4,66.0,29.81,West,276,3.0,12.0,86,0.00,,---,0.98,VWS V14.01,2013-08-13 19:59:00,
2013-08-13 16:04:00,70.0,65.3,29.81,SSE,160,8.0,9.0,85,0.00,,---,0.98,VWS V14.01,2013-08-13 20:04:00,
2013-08-13 16:09:00,69.7,65.3,29.81,SSW,212,3.0,9.0,86,0.00,,---,0.98,VWS V14.01,2013-08-13 20:09:00,
2013-08-13 16:14:00,69.7,64.7,29.81,WNW,302,3.0,9.0,84,0.00,,---,0.98,VWS V14.01,2013-08-13 20:14:00,
2013-08-13 16:19:00,69.9,65.9,29.81,East,92,3.0,9.0,87,0.00,,---,0.98,VWS V14.01,2013-08-13 20:19:00,
2013-08-13 16:24:00,69.8,64.8,29.80,SSW,203,1.0,9.0,84,0.00,,---,0.98,VWS V14.01,2013-08-13 20:24:00,
2013-08-13 16:29:00,69.4,65.0,29.80,WSW,253,1.0,9.0,86,0.00,,---,0.98,VWS V14.01,2013-08-13 20:29:00,
2013-08-13 16:34:00,69.1,64.7,29.80,WSW,253,2.0,8.0,86,0.00,,---,0.98,VWS V14.01,2013-08-13 20:34:00,
2013-08-13 16:39:00,68.9,64.9,29.80,NNW,339,5.0,8.0,87,0.00,,---,0.98,VWS V14.01,2013-08-13 20:39:00,
2013-08-13 16:44:00,68.7,64.7,29.80,SW,222,2.0,9.0,87,0.00,,---,0.98,VWS V14.01,2013-08-13 20:44:00,
2013-08-13 16:49:00,68.7,65.0,29.81,South,188,1.0,9.0,88,0.00,,---,0.98,VWS V14.01,2013-08-13 20:49:00,
2013-08-13 16:54:00,69.2,65.8,29.80,WNW,299,1.0,9.0,89,0.00,,---,0.98,VWS V14.01,2013-08-13 20:54:00,
2013-08-13 16:59:00,69.3,65.6,29.81,SSW,197,3.0,3.0,88,0.00,,---,0.98,VWS V14.01,2013-08-13 20:59:00,
2013-08-13 17:04:00,69.2,65.5,29.81,SSW,207,1.0,7.0,88,0.00,,---,0.98,VWS V14.01,2013-08-13 21:04:00,
2013-08-13 17:09:00,69.1,65.4,29.81,WSW,247,3.0,7.0,88,0.00,,---,0.98,VWS V14.01,2013-08-13 21:09:00,
2013-08-13 17:14:00,68.8,65.4,29.81,South,184,2.0,7.0,89,0.00,,---,0.98,VWS V14.01,2013-08-13 21:14:00,
2013-08-13 17:19:00,68.7,65.7,29.80,South,185,1.0,8.0,90,0.00,,---,0.98,VWS V14.01,2013-08-13 21:19:00,
2013-08-13 17:25:00,68.8,65.8,29.81,SW,227,1.0,8.0,90,0.00,,---,0.98,VWS V14.01,2013-08-13 21:25:00,
2013-08-13 17:30:00,69.0,65.9,29.81,SW,221,2.0,2.0,90,0.00,,---,0.98,VWS V14.01,2013-08-13 21:30:00,
2013-08-13 17:35:00,69.2,66.2,29.80,SW,215,3.0,3.0,90,0.00,,---,0.98,VWS V14.01,2013-08-13 21:35:00,
2013-08-13 17:40:00,69.5,65.8,29.81,WNW,297,4.0,6.0,88,0.00,,---,0.98,VWS V14.01,2013-08-13 21:40:00,
2013-08-13 17:45:00,69.4,66.0,29.81,WNW,283,5.0,6.0,89,0.00,,---,0.98,VWS V14.01,2013-08-13 21:45:00,
2013-08-13 17:50:00,69.9,66.5,29.81,NW,305,2.0,6.0,89,0.00,,---,0.98,VWS V14.01,2013-08-13 21:50:00,
2013-08-13 17:55:00,70.3,66.2,29.81,WSW,249,4.0,6.0,87,0.00,,---,0.98,VWS V14.01,2013-08-13 21:55:00,
2013-08-13 18:00:00,69.9,65.2,29.82,West,263,3.0,5.0,85,0.00,,---,0.98,VWS V14.01,2013-08-13 22:00:00,
2013-08-13 18:05:00,68.5,63.8,29.82,NW,319,4.0,12.0,85,0.00,,---,0.98,VWS V14.01,2013-08-13 22:05:00,
2013-08-13 18:10:00,67.3,63.0,29.82,NW,320,3.0,12.0,86,0.00,,---,0.98,VWS V14.01,2013-08-13 22:10:00,
2013-08-13 18:15:00,66.5,62.8,29.83,NNW,330,2.0,12.0,88,0.00,,---,0.98,VWS V14.01,2013-08-13 22:15:00,
2013-08-13 18:20:00,65.8,62.5,29.83,NNE,23,3.0,12.0,89,0.00,,---,0.98,VWS V14.01,2013-08-13 22:20:00,
2013-08-13 18:25:00,65.1,62.4,29.82,NNE,20,1.0,12.0,91,0.01,,---,0.99,VWS V14.01,2013-08-13 22:25:00,
2013-08-13 18:30:00,64.6,62.5,29.83,NE,36,2.0,2.0,93,0.02,,---,1.00,VWS V14.01,2013-08-13 22:30:00,
2013-08-13 18:35:00,64.3,62.5,29.83,SSW,202,1.0,4.0,94,0.02,,---,1.00,VWS V14.01,2013-08-13 22:35:00,
2013-08-13 18:40:00,64.0,62.5,29.83,North,359,2.0,4.0,95,0.02,,---,1.00,VWS V14.01,2013-08-13 22:40:00,
2013-08-13 18:45:00,63.7,62.5,29.83,NW,322,1.0,4.0,96,0.02,,---,1.00,VWS V14.01,2013-08-13 22:45:00,
2013-08-13 18:50:00,63.5,62.3,29.83,West,272,2.0,4.0,96,0.02,,---,1.00,VWS V14.01,2013-08-13 22:50:00,
2013-08-13 18:55:00,63.4,62.5,29.83,WNW,283,0.0,4.0,97,0.02,,---,1.00,VWS V14.01,2013-08-13 22:55:00,
2013-08-13 19:00:00,63.5,62.6,29.83,WNW,288,0.0,1.0,97,0.02,,---,1.00,VWS V14.01,2013-08-13 23:00:00,
2013-08-13 19:05:00,63.4,62.5,29.83,WNW,288,0.0,1.0,97,0.02,,---,1.00,VWS V14.01,2013-08-13 23:05:00,
2013-08-13 19:10:00,63.5,62.9,29.83,NE,44,2.0,2.0,98,0.02,,---,1.00,VWS V14.01,2013-08-13 23:10:00,
2013-08-13 19:15:00,63.5,62.9,29.83,NW,314,1.0,2.0,98,0.02,,---,1.00,VWS V14.01,2013-08-13 23:15:00,
2013-08-13 19:20:00,63.5,62.9,29.83,West,276,0.0,3.0,98,0.02,,---,1.00,VWS V14.01,2013-08-13 23:20:00,
2013-08-13 19:25:00,63.5,62.9,29.83,NW,317,0.0,3.0,98,0.02,,---,1.00,VWS V14.01,2013-08-13 23:25:00,
2013-08-13 19:30:00,63.5,62.9,29.83,NNE,13,0.0,1.0,98,0.00,,---,1.00,VWS V14.01,2013-08-13 23:30:00,
2013-08-13 19:35:00,63.5,62.9,29.83,South,172,0.0,2.0,98,0.00,,---,1.00,VWS V14.01,2013-08-13 23:35:00,
2013-08-13 19:40:00,63.5,62.9,29.83,WNW,283,1.0,2.0,98,0.00,,---,1.00,VWS V14.01,2013-08-13 23:40:00,
2013-08-13 19:45:00,63.5,62.9,29.84,NW,323,3.0,6.0,98,0.00,,---,1.00,VWS V14.01,2013-08-13 23:45:00,
2013-08-13 19:50:00,63.5,63.2,29.84,West,279,1.0,6.0,99,0.00,,---,1.00,VWS V14.01,2013-08-13 23:50:00,
2013-08-13 19:55:00,63.5,63.2,29.84,NE,41,1.0,6.0,99,0.00,,---,1.00,VWS V14.01,2013-08-13 23:55:00,
2013-08-13 20:00:00,63.5,63.2,29.84,NW,321,5.0,6.0,99,0.00,,---,1.00,VWS V14.01,2013-08-14 00:00:00,
2013-08-13 20:05:00,63.5,63.2,29.84,NW,318,1.0,6.0,99,0.00,,---,1.00,VWS V14.01,2013-08-14 00:05:00,
2013-08-13 20:10:00,63.4,63.1,29.84,North,5,2.0,8.0,99,0.00,,---,1.00,VWS V14.01,2013-08-14 00:10:00,
2013-08-13 20:15:00,63.4,63.1,29.84,NE,41,3.0,8.0,99,0.00,,---,1.00,VWS V14.01,2013-08-14 00:15:00,
2013-08-13 20:20:00,63.3,63.0,29.84,NW,322,2.0,8.0,99,0.00,,---,1.00,VWS V14.01,2013-08-14 00:20:00,
2013-08-13 20:25:00,63.2,62.9,29.84,NE,54,0.0,8.0,99,0.00,,---,1.00,VWS V14.01,2013-08-14 00:25:00,
2013-08-13 20:30:00,63.0,62.4,29.84,WSW,243,2.0,4.0,98,0.00,,---,1.00,VWS V14.01,2013-08-14 00:30:00,
2013-08-13 20:35:00,62.8,62.2,29.84,WSW,249,0.0,5.0,98,0.00,,---,1.00,VWS V14.01,2013-08-14 00:35:00,
2013-08-13 20:40:00,62.7,62.4,29.84,NE,49,0.0,5.0,99,0.00,,---,1.00,VWS V14.01,2013-08-14 00:40:00,
2013-08-13 20:45:00,62.5,62.2,29.84,North,6,0.0,5.0,99,0.00,,---,1.00,VWS V14.01,2013-08-14 00:45:00,
2013-08-13 20:50:00,62.4,62.1,29.84,North,8,1.0,5.0,99,0.00,,---,1.00,VWS V14.01,2013-08-14 00:50:00,
2013-08-13 20:55:00,62.3,62.0,29.84,NW,323,1.0,5.0,99,0.00,,---,1.00,VWS V14.01,2013-08-14 00:55:00,
2013-08-13 21:00:00,62.3,62.0,29.85,NW,309,1.0,5.0,99,0.00,,---,1.00,VWS V14.01,2013-08-14 01:00:00,
2013-08-13 21:05:00,62.2,61.9,29.85,NNW,330,1.0,5.0,99,0.00,,---,1.00,VWS V14.01,2013-08-14 01:05:00,
2013-08-13 21:10:00,62.2,61.9,29.85,NNW,341,0.0,5.0,99,0.00,,---,1.00,VWS V14.01,2013-08-14 01:10:00,
2013-08-13 21:15:00,62.2,61.9,29.85,WNW,300,0.0,5.0,99,0.00,,---,1.00,VWS V14.01,2013-08-14 01:15:00,
2013-08-13 21:20:00,62.3,62.0,29.85,North,1,1.0,5.0,99,0.00,,---,1.00,VWS V14.01,2013-08-14 01:20:00,
2013-08-13 21:25:00,62.3,62.0,29.85,NNW,342,1.0,5.0,99,0.00,,---,1.00,VWS V14.01,2013-08-14 01:25:00,
2013-08-13 21:30:00,62.3,62.0,29.85,NW,322,1.0,3.0,99,0.00,,---,1.00,VWS V14.01,2013-08-14 01:30:00,
2013-08-13 21:35:00,62.3,62.0,29.85,NNE,12,3.0,3.0,99,0.00,,---,1.00,VWS V14.01,2013-08-14 01:35:00,
2013-08-13 21:40:00,62.3,62.0,29.85,NNW,338,2.0,5.0,99,0.00,,---,1.00,VWS V14.01,2013-08-14 01:40:00,
2013-08-13 21:45:00,62.3,62.0,29.85,WNW,290,1.0,5.0,99,0.00,,---,1.00,VWS V14.01,2013-08-14 01:45:00,
2013-08-13 21:50:00,62.4,62.1,29.86,NE,46,1.0,5.0,99,0.00,,---,1.00,VWS V14.01,2013-08-14 01:50:00,
2013-08-13 21:55:00,62.5,62.2,29.86,SW,217,0.0,5.0,99,0.00,,---,1.00,VWS V14.01,2013-08-14 01:55:00,
2013-08-13 22:00:00,62.5,62.2,29.86,North,9,0.0,1.0,99,0.00,,---,1.00,VWS V14.01,2013-08-14 02:00:00,
2013-08-13 22:05:00,62.4,62.1,29.86,NW,317,2.0,8.0,99,0.00,,---,1.00,VWS V14.01,2013-08-14 02:05:00,
2013-08-13 22:10:00,62.4,62.1,29.86,WNW,302,2.0,8.0,99,0.00,,---,1.00,VWS V14.01,2013-08-14 02:10:00,
2013-08-13 22:15:00,62.4,62.1,29.85,NNW,328,4.0,8.0,99,0.00,,---,1.00,VWS V14.01,2013-08-14 02:15:00,
2013-08-13 22:20:00,62.4,62.1,29.86,NNW,330,1.0,8.0,99,0.00,,---,1.00,VWS V14.01,2013-08-14 02:20:00,
2013-08-13 22:25:00,62.4,62.1,29.85,NNE,25,2.0,8.0,99,0.00,,---,1.00,VWS V14.01,2013-08-14 02:25:00,
2013-08-13 22:30:00,62.4,62.1,29.86,NW,312,0.0,3.0,99,0.00,,---,1.00,VWS V14.01,2013-08-14 02:30:00,
2013-08-13 22:35:00,62.4,62.1,29.86,NW,321,0.0,5.0,99,0.00,,---,1.00,VWS V14.01,2013-08-14 02:35:00,
2013-08-13 22:40:00,62.4,62.1,29.86,NW,307,0.0,5.0,99,0.00,,---,1.00,VWS V14.01,2013-08-14 02:40:00,
2013-08-13 22:45:00,62.3,61.7,29.86,SW,222,3.0,5.0,98,0.00,,---,1.00,VWS V14.01,2013-08-14 02:45:00,
2013-08-13 22:50:00,62.3,61.7,29.87,NW,322,1.0,5.0,98,0.00,,---,1.00,VWS V14.01,2013-08-14 02:50:00,
2013-08-13 22:55:00,62.3,62.0,29.87,West,274,0.0,5.0,99,0.00,,---,1.00,VWS V14.01,2013-08-14 02:55:00,
2013-08-13 23:00:00,62.3,62.0,29.87,WNW,286,5.0,5.0,99,0.00,,---,1.00,VWS V14.01,2013-08-14 03:00:00,
2013-08-13 23:05:00,62.3,62.0,29.87,WNW,301,1.0,6.0,99,0.00,,---,1.00,VWS V14.01,2013-08-14 03:05:00,
2013-08-13 23:11:00,62.3,62.0,29.87,NNW,333,3.0,6.0,99,0.00,,---,1.00,VWS V14.01,2013-08-14 03:11:00,
2013-08-13 23:16:00,62.2,61.6,29.87,WNW,286,2.0,6.0,98,0.00,,---,1.00,VWS V14.01,2013-08-14 03:16:00,
2013-08-13 23:21:00,62.2,61.6,29.87,West,278,1.0,6.0,98,0.00,,---,1.00,VWS V14.01,2013-08-14 03:21:00,
2013-08-13 23:26:00,62.1,61.5,29.87,NNW,342,2.0,6.0,98,0.00,,---,1.00,VWS V14.01,2013-08-14 03:26:00,
2013-08-13 23:31:00,62.0,61.4,29.87,North,358,0.0,1.0,98,0.00,,---,1.00,VWS V14.01,2013-08-14 03:31:00,
2013-08-13 23:36:00,61.9,61.3,29.88,West,274,2.0,3.0,98,0.00,,---,1.00,VWS V14.01,2013-08-14 03:36:00,
2013-08-13 23:41:00,61.8,61.2,29.88,North,354,1.0,4.0,98,0.00,,---,1.00,VWS V14.01,2013-08-14 03:41:00,
2013-08-13 23:46:00,61.8,61.2,29.87,NW,326,3.0,7.0,98,0.00,,---,1.00,VWS V14.01,2013-08-14 03:46:00,
2013-08-13 23:51:00,61.8,61.2,29.88,NW,326,1.0,7.0,98,0.00,,---,1.00,VWS V14.01,2013-08-14 03:51:00,
2013-08-13 23:56:00,61.7,61.1,29.88,North,353,1.0,7.0,98,0.00,,---,1.00,VWS V14.01,2013-08-14 03:56:00,